Tracking 18032 objects as of 27-March-2017
HD Live streaming from Space Station
objects crossing your sky now

FLOCK 3P 74

Track FLOCK 3P 74 now!
10-day predictions


NORAD ID: 42048
Int'l Code: 2017-008DE
Perigee: 501.0 km
Apogee: 514.6 km
Inclination: 97.5 °
Period: 94.6 minutes
Semi major axis: 6878 km
RCS: Unknown
Launch date: February 15, 2017
Source: United States (US)
Launch site: SIRHARIKOTA (SRI)
Your satellite tracking list
Your tracking list is empty





NASA's NSSDC Master Catalog

Two Line Element Set (TLE):
1 42048U 17008DE  17084.67417164 +.00001473 +00000-0 +68126-4 0  9992
2 42048 097.5089 146.2434 0009858 122.3466 237.8743 15.21710227004990
Source of the keplerian elements: AFSPC